Location: Newark
(48.3453°N, 0.5589°E)
Time: 08:11:08
(UTC+00:00)

A-11 Canister half - Pass Details

Date: 13 December 2019
Orbit: 1517 x 1683 km, 47.2° (Epoch: 25 January)

Event Time Altitude Azimuth Distance (km) Brightness Sun altitude
Rises 17:08:52 0° 289° (WNW) 4,857 12.4 -10.4°
Reaches altitude 10° 17:12:06 10° 284° (WNW) 3,889 12.0 -10.8°
Maximum altitude 17:21:27 47° 215° (SW) 2,111 10.2 -12.3°
Drops below altitude 10° 17:30:55 10° 146° (SE) 3,939 11.0 -13.8°
Sets 17:34:14 0° 141° (SE) 4,924 11.4 -14.3°
